This is the latest recevied weather packets stored in our database for station/object K0SNA. If no packets are shown the sender has not sent any weather packets the latest 1 day(s).
| Time | Temp. | Humidity | Pressure | Rain* | Wind** | Luminosity | Snow |
|---|---|---|---|---|---|---|---|
| 1836274750 | 18.33° C | 96% | 1015.1 hPa | 0 mm | 0 m/s | 0 W/m² | - |
| 1836274447 | 18.33° C | 96% | 1015 hPa | 0 mm | 0 m/s | 0 W/m² | - |
| 1836274301 | 17.78° C | 96% | 1015.2 hPa | 0 mm | 0 m/s | 0 W/m² | - |
| 1836274145 | 18.33° C | 96% | 1015.2 hPa | 0 mm | 0 m/s | 0 W/m² | - |
| 1778047625 | 3.33° C | 57% | 1014.7 hPa | 0 mm | 1.34 m/s, 269° | 0 W/m² | - |
| 1778047321 | 3.33° C | 56% | 1014.8 hPa | 0 mm | 0.89 m/s, 242° | 0 W/m² | - |
| 1778047018 | 3.33° C | 56% | 1014.6 hPa | 0 mm | 0.89 m/s, 257° | 0 W/m² | - |
| 1778046715 | 3.33° C | 56% | 1014.6 hPa | 0 mm | 0.45 m/s, 215° | 0 W/m² | - |
| 1778046412 | 3.89° C | 56% | 1014.5 hPa | 0 mm | 0.45 m/s, 239° | 0 W/m² | - |
| 1778046108 | 3.89° C | 55% | 1014.6 hPa | 0 mm | 0.89 m/s, 252° | 0 W/m² | - |
| 1778045806 | 3.89° C | 55% | 1014.7 hPa | 0 mm | 1.34 m/s, 330° | 0 W/m² | - |
| 1778045504 | 3.89° C | 55% | 1014.5 hPa | 0 mm | 0.89 m/s, 241° | 0 W/m² | - |
| 1778045202 | 3.89° C | 55% | 1014.4 hPa | 0 mm | 0.89 m/s, 214° | 0 W/m² | - |
| 1778044900 | 3.89° C | 55% | 1014.4 hPa | 0 mm | 0.89 m/s, 243° | 0 W/m² | - |
| 1778044597 | 3.89° C | 55% | 1014.4 hPa | 0 mm | 0.89 m/s, 229° | 0 W/m² | - |
| 1778044293 | 3.89° C | 55% | 1014.1 hPa | 0 mm | 0.89 m/s, 264° | 0 W/m² | - |
| 1778043992 | 3.89° C | 55% | 1014.1 hPa | 0 mm | 0.89 m/s, 282° | 0 W/m² | - |
| 1778043688 | 4.44° C | 55% | 1014 hPa | 0 mm | 1.34 m/s, 292° | 0 W/m² | - |
| 1778043385 | 4.44° C | 55% | 1013.9 hPa | 0 mm | 1.34 m/s, 49° | 0 W/m² | - |
| 1778043081 | 4.44° C | 54% | 1013.9 hPa | 0 mm | 0.45 m/s, 221° | 0 W/m² | - |
| 1778042779 | 4.44° C | 55% | 1014 hPa | 0 mm | 1.34 m/s, 323° | 0 W/m² | - |
| 1778042476 | 4.44° C | 55% | 1014 hPa | 0 mm | 1.34 m/s, 347° | 0 W/m² | - |
| 1778042173 | 4.44° C | 54% | 1013.9 hPa | 0 mm | 1.79 m/s, 338° | 0 W/m² | - |
| 1778041871 | 4.44° C | 54% | 1014.1 hPa | 0 mm | 0 m/s | 0 W/m² | - |
| 1778041570 | 4.44° C | 54% | 1014 hPa | 0 mm | 0.45 m/s, 230° | 0 W/m² | - |
* Rain latest hour (hover to see other rain measurements)
** Current wind speed in m/s (hover to see current wind gust speed)